N7 KLAX-KHHR

Flight info

Callsign N7
Flight time -1h -10m
Altitude 2000
Route VFR S
Aircraft C172/L-SFG/C

Departure

Time 2026-04-21 09:29
Airport Los Angeles International Airport (KLAX)

Arrival

Time 2026-04-21 08:18
Airport Jack Northrop Field Hawthorne Municipal Airport (KHHR)
Time Latitude Longitude Altitude Speed Heading
2026-04-21 08:18 33.93421 -118.39429 107 ft 0 kts 176°
2026-04-21 09:27 33.93413 -118.39436 107 ft 12 kts 253°
2026-04-21 09:27 33.93539 -118.39379 106 ft 23 kts 11°
2026-04-21 09:28 33.93617 -118.39469 107 ft 35 kts 264°
2026-04-21 09:28 33.93575 -118.40003 296 ft 75 kts 268°
2026-04-21 09:28 33.93600 -118.40839 355 ft 119 kts 276°
2026-04-21 09:28 33.93861 -118.41785 582 ft 125 kts 311°
2026-04-21 09:29 33.94630 -118.42242 837 ft 126 kts 355°
2026-04-21 09:29 33.95441 -118.41917 1106 ft 125 kts 39°
2026-04-21 09:29 33.95821 -118.41031 1370 ft 120 kts 80°
2026-04-21 09:29 33.95965 -118.40062 1642 ft 116 kts 79°
2026-04-21 09:30 33.96098 -118.39107 1916 ft 114 kts 78°
2026-04-21 09:30 33.96222 -118.38177 2186 ft 113 kts 79°
2026-04-21 09:30 33.96343 -118.37244 2460 ft 112 kts 79°
2026-04-21 09:30 33.96467 -118.36276 2581 ft 123 kts 79°
2026-04-21 09:31 33.96608 -118.35201 2599 ft 133 kts 79°
2026-04-21 09:31 33.96757 -118.34072 2600 ft 138 kts 79°
2026-04-21 09:31 33.96912 -118.32906 2600 ft 140 kts 79°
2026-04-21 09:31 33.97069 -118.31730 2600 ft 141 kts 79°
2026-04-21 09:32 33.97225 -118.30565 2599 ft 142 kts 79°
2026-04-21 09:32 33.97383 -118.29385 2597 ft 142 kts 79°
2026-04-21 09:32 33.97542 -118.28196 2595 ft 142 kts 79°
2026-04-21 09:32 33.97702 -118.26994 2593 ft 143 kts 79°
2026-04-21 09:33 33.97860 -118.25812 2592 ft 143 kts 79°
2026-04-21 09:33 33.98021 -118.24606 2590 ft 143 kts 79°
2026-04-21 09:33 33.98179 -118.23423 2588 ft 143 kts 79°
2026-04-21 09:33 33.98341 -118.22214 2586 ft 143 kts 79°
2026-04-21 09:34 33.98502 -118.21012 2584 ft 144 kts 79°
2026-04-21 09:34 33.98661 -118.19823 2582 ft 144 kts 79°
2026-04-21 09:34 33.98822 -118.18626 2580 ft 144 kts 79°
2026-04-21 09:34 33.98984 -118.17420 2578 ft 144 kts 79°
2026-04-21 09:35 33.99146 -118.16216 2576 ft 145 kts 79°
2026-04-21 09:35 33.99310 -118.15010 2573 ft 145 kts 79°
2026-04-21 09:35 33.99474 -118.13808 2571 ft 145 kts 79°
2026-04-21 09:35 33.99640 -118.12592 2569 ft 146 kts 79°
2026-04-21 09:36 33.99806 -118.11388 2567 ft 146 kts 79°
2026-04-21 09:36 33.99976 -118.10169 2565 ft 146 kts 79°
2026-04-21 09:36 34.00147 -118.08945 2562 ft 147 kts 78°
2026-04-21 09:36 34.00320 -118.07725 2560 ft 147 kts 79°
2026-04-21 09:37 34.00496 -118.06487 2559 ft 147 kts 78°
2026-04-21 09:37 34.00670 -118.05272 2559 ft 147 kts 79°
2026-04-21 09:37 34.00846 -118.04049 2559 ft 147 kts 79°
2026-04-21 09:37 34.01022 -118.02824 2558 ft 147 kts 79°
2026-04-21 09:38 34.01200 -118.01595 2558 ft 147 kts 78°
2026-04-21 09:38 34.01379 -118.00362 2558 ft 147 kts 78°
2026-04-21 09:38 34.01556 -117.99144 2558 ft 148 kts 78°
2026-04-21 09:38 34.01737 -117.97912 2557 ft 148 kts 78°
2026-04-21 09:39 34.01917 -117.96684 2557 ft 148 kts 78°
2026-04-21 09:39 34.02099 -117.95452 2557 ft 148 kts 78°
2026-04-21 09:39 34.02278 -117.94237 2556 ft 148 kts 78°
2026-04-21 09:39 34.02461 -117.93005 2556 ft 148 kts 78°
2026-04-21 09:40 34.02644 -117.91776 2556 ft 148 kts 78°
2026-04-21 09:40 34.02826 -117.90559 2556 ft 148 kts 78°
2026-04-21 09:40 34.03012 -117.89318 2555 ft 148 kts 78°
2026-04-21 09:40 34.03198 -117.88091 2555 ft 148 kts 78°
2026-04-21 09:41 34.03384 -117.86860 2555 ft 148 kts 78°
2026-04-21 09:41 34.03568 -117.85646 2555 ft 148 kts 78°
2026-04-21 09:41 34.03758 -117.84403 2554 ft 148 kts 78°
2026-04-21 09:41 34.03946 -117.83176 2554 ft 148 kts 78°
2026-04-21 09:42 34.04136 -117.81944 2555 ft 148 kts 78°
2026-04-21 09:42 34.04327 -117.80715 2556 ft 148 kts 78°
2026-04-21 09:42 34.04517 -117.79494 2558 ft 148 kts 78°
2026-04-21 09:42 34.04710 -117.78258 2559 ft 148 kts 78°
2026-04-21 09:43 34.04902 -117.77035 2560 ft 148 kts 78°
2026-04-21 09:43 34.05097 -117.75802 2561 ft 148 kts 78°
2026-04-21 09:43 34.05295 -117.74559 2562 ft 148 kts 78°
2026-04-21 09:43 34.05491 -117.73334 2563 ft 149 kts 78°
2026-04-21 09:44 34.05692 -117.72079 2564 ft 149 kts 78°
2026-04-21 09:44 34.05888 -117.70866 2565 ft 149 kts 78°
2026-04-21 09:44 34.06091 -117.69617 2566 ft 149 kts 78°
2026-04-21 09:44 34.06293 -117.68386 2567 ft 149 kts 78°
2026-04-21 09:45 34.06496 -117.67151 2569 ft 149 kts 78°
2026-04-21 09:45 34.06699 -117.65918 2570 ft 149 kts 78°
2026-04-21 09:45 34.06905 -117.64683 2571 ft 149 kts 78°
2026-04-21 09:45 34.07109 -117.63457 2572 ft 149 kts 78°
2026-04-21 09:46 34.07319 -117.62212 2573 ft 149 kts 78°
2026-04-21 09:46 34.07526 -117.60987 2574 ft 149 kts 78°
2026-04-21 09:46 34.07737 -117.59750 2575 ft 149 kts 78°
2026-04-21 09:46 34.07945 -117.58515 2575 ft 149 kts 78°
2026-04-21 09:47 34.08152 -117.57271 2575 ft 149 kts 78°
2026-04-21 09:47 34.08350 -117.56052 2574 ft 149 kts 78°
2026-04-21 09:47 34.08547 -117.54817 2574 ft 148 kts 78°
2026-04-21 09:47 34.08740 -117.53584 2574 ft 148 kts 78°
2026-04-21 09:48 34.08926 -117.52371 2574 ft 148 kts 78°
2026-04-21 09:48 34.09094 -117.51137 2569 ft 148 kts 87°
2026-04-21 09:48 34.08732 -117.50008 2600 ft 147 kts 123°
2026-04-21 09:48 34.08190 -117.48937 2678 ft 149 kts 122°
2026-04-21 09:49 34.07632 -117.47858 2756 ft 150 kts 122°
2026-04-21 09:49 34.07075 -117.46791 2831 ft 150 kts 122°
2026-04-21 09:49 34.06509 -117.45717 2908 ft 150 kts 122°
2026-04-21 09:49 34.05946 -117.44655 2983 ft 150 kts 122°
2026-04-21 09:50 34.05381 -117.43595 3058 ft 150 kts 122°
2026-04-21 09:50 34.04998 -117.42879 3108 ft 150 kts 122°
2026-04-21 09:50 34.03666 -117.40405 3284 ft 150 kts 122°
2026-04-21 09:51 34.03093 -117.39347 3359 ft 150 kts 122°
2026-04-21 09:51 34.02514 -117.38281 3435 ft 150 kts 122°
2026-04-21 09:51 34.01947 -117.37238 3509 ft 150 kts 122°
2026-04-21 09:51 34.01371 -117.36182 3584 ft 150 kts 122°
2026-04-21 09:52 34.00795 -117.35128 3659 ft 150 kts 122°
2026-04-21 09:52 34.00215 -117.34065 3733 ft 150 kts 123°
2026-04-21 09:52 33.99642 -117.33019 3806 ft 150 kts 123°
2026-04-21 09:52 33.99058 -117.31956 3880 ft 150 kts 122°
2026-04-21 09:53 33.98479 -117.30908 3953 ft 150 kts 122°
2026-04-21 09:53 33.97897 -117.29858 4026 ft 150 kts 122°
2026-04-21 09:53 33.97310 -117.28806 4100 ft 150 kts 122°
2026-04-21 09:53 33.96722 -117.27773 4180 ft 145 kts 123°
2026-04-21 09:54 33.96158 -117.26791 4254 ft 140 kts 123°
2026-04-21 09:54 33.95608 -117.25826 4328 ft 138 kts 122°
2026-04-21 09:54 33.95058 -117.24850 4405 ft 137 kts 122°
2026-04-21 09:54 33.94533 -117.23904 4481 ft 136 kts 123°
2026-04-21 09:55 33.94010 -117.22947 4557 ft 135 kts 123°
2026-04-21 09:55 33.93498 -117.21993 4634 ft 134 kts 123°
2026-04-21 09:55 33.93001 -117.21047 4710 ft 134 kts 123°
2026-04-21 09:55 33.92510 -117.20078 4787 ft 134 kts 122°
2026-04-21 09:56 33.92033 -117.19113 4864 ft 134 kts 122°
2026-04-21 09:56 33.91554 -117.18134 4942 ft 134 kts 122°
2026-04-21 09:56 33.91083 -117.17155 5019 ft 134 kts 122°
2026-04-21 09:56 33.90620 -117.16176 5096 ft 135 kts 122°
2026-04-21 09:57 33.90154 -117.15176 5174 ft 135 kts 122°
2026-04-21 09:57 33.89696 -117.14181 5251 ft 136 kts 122°
2026-04-21 09:57 33.89238 -117.13174 5328 ft 136 kts 122°
2026-04-21 09:57 33.88781 -117.12159 5406 ft 137 kts 122°
2026-04-21 09:58 33.88322 -117.11133 5483 ft 137 kts 122°
2026-04-21 09:58 33.87867 -117.10108 5552 ft 138 kts 122°
2026-04-21 09:58 33.87410 -117.09084 5566 ft 142 kts 122°
2026-04-21 09:58 33.86930 -117.08009 5565 ft 144 kts 122°
2026-04-21 09:59 33.86453 -117.06943 5562 ft 145 kts 122°
2026-04-21 09:59 33.86029 -117.05832 5550 ft 150 kts 104°
2026-04-21 09:59 33.86266 -117.04616 5698 ft 147 kts 73°
2026-04-21 09:59 33.86633 -117.03494 5934 ft 137 kts 72°
2026-04-21 10:00 33.86993 -117.02434 6142 ft 136 kts 71°
2026-04-21 10:00 33.87351 -117.01381 6367 ft 136 kts 71°
2026-04-21 10:00 33.87711 -117.00320 6595 ft 136 kts 71°
2026-04-21 10:00 33.88065 -116.99276 6820 ft 135 kts 71°
2026-04-21 10:01 33.88421 -116.98219 7047 ft 135 kts 71°
2026-04-21 10:01 33.88771 -116.97179 7271 ft 135 kts 71°
2026-04-21 10:01 33.89192 -116.96168 7491 ft 137 kts 49°
2026-04-21 10:01 33.89903 -116.95409 7721 ft 137 kts 40°
2026-04-21 10:02 33.91346 -116.93892 8178 ft 136 kts 41°
2026-04-21 10:02 33.92053 -116.93142 8403 ft 136 kts 41°
2026-04-21 10:02 33.92765 -116.92384 8631 ft 136 kts 41°
2026-04-21 10:03 33.93470 -116.91634 8856 ft 136 kts 41°
2026-04-21 10:03 33.94180 -116.90880 9084 ft 135 kts 41°
2026-04-21 10:03 33.94891 -116.90125 9312 ft 135 kts 41°
2026-04-21 10:03 33.95605 -116.89371 9454 ft 142 kts 41°
2026-04-21 10:04 33.96376 -116.88555 9474 ft 152 kts 41°
2026-04-21 10:04 33.97191 -116.87688 9472 ft 158 kts 41°
2026-04-21 10:04 33.98023 -116.86804 9469 ft 161 kts 41°
2026-04-21 10:04 33.98867 -116.85906 9468 ft 162 kts 41°
2026-04-21 10:05 33.99714 -116.85007 9468 ft 163 kts 41°
2026-04-21 10:05 34.00562 -116.84105 9468 ft 163 kts 41°
2026-04-21 10:05 34.01424 -116.83189 9468 ft 163 kts 41°
2026-04-21 10:05 34.02280 -116.82279 9468 ft 163 kts 41°
2026-04-21 10:06 34.03130 -116.81376 9468 ft 163 kts 41°
2026-04-21 10:06 34.03986 -116.80466 9468 ft 163 kts 41°
2026-04-21 10:06 34.04842 -116.79555 9468 ft 163 kts 41°
2026-04-21 10:06 34.05697 -116.78646 9468 ft 163 kts 41°
2026-04-21 10:07 34.06545 -116.77742 9464 ft 163 kts 40°
2026-04-21 10:07 34.07380 -116.76798 9443 ft 163 kts 41°
2026-04-21 10:07 34.08218 -116.75848 9441 ft 162 kts 41°
2026-04-21 10:07 34.09033 -116.74925 9445 ft 162 kts 41°
2026-04-21 10:08 34.09852 -116.74002 9452 ft 161 kts 41°
2026-04-21 10:08 34.10674 -116.73079 9457 ft 161 kts 41°
2026-04-21 10:08 34.11496 -116.72160 9464 ft 161 kts 41°
2026-04-21 10:08 34.12328 -116.71234 9471 ft 161 kts 41°
2026-04-21 10:09 34.13150 -116.70324 9478 ft 161 kts 41°
2026-04-21 10:09 34.13974 -116.69415 9485 ft 161 kts 41°
2026-04-21 10:09 34.14806 -116.68503 9492 ft 161 kts 41°
2026-04-21 10:09 34.15633 -116.67601 9499 ft 160 kts 41°
2026-04-21 10:10 34.16469 -116.66694 9506 ft 160 kts 41°
2026-04-21 10:10 34.17307 -116.65791 9513 ft 160 kts 41°
2026-04-21 10:10 34.18136 -116.64902 9520 ft 160 kts 41°
2026-04-21 10:10 34.18970 -116.64014 9527 ft 160 kts 41°
2026-04-21 10:11 34.19815 -116.63120 9532 ft 160 kts 41°
2026-04-21 10:11 34.20651 -116.62239 9535 ft 160 kts 41°
2026-04-21 10:11 34.21505 -116.61345 9537 ft 161 kts 41°
2026-04-21 10:11 34.22357 -116.60456 9538 ft 161 kts 41°
2026-04-21 10:12 34.23203 -116.59577 9538 ft 161 kts 41°
2026-04-21 10:12 34.24059 -116.58693 9538 ft 161 kts 41°
2026-04-21 10:12 34.24913 -116.57810 9535 ft 162 kts 41°
2026-04-21 10:12 34.25771 -116.56920 9529 ft 162 kts 41°
2026-04-21 10:13 34.26629 -116.56029 9523 ft 163 kts 41°
2026-04-21 10:13 34.27492 -116.55130 9517 ft 163 kts 41°
2026-04-21 10:13 34.28344 -116.54236 9512 ft 163 kts 41°
2026-04-21 10:13 34.29208 -116.53326 9505 ft 164 kts 41°
2026-04-21 10:14 34.30074 -116.52412 9499 ft 164 kts 41°
2026-04-21 10:14 34.30940 -116.51495 9493 ft 164 kts 41°
2026-04-21 10:14 34.31791 -116.50589 9487 ft 165 kts 41°
2026-04-21 10:14 34.32658 -116.49666 9481 ft 165 kts 41°
2026-04-21 10:15 34.33522 -116.48742 9475 ft 165 kts 41°
2026-04-21 10:15 34.34376 -116.47826 9469 ft 165 kts 41°
2026-04-21 10:15 34.35240 -116.46899 9463 ft 165 kts 41°
2026-04-21 10:15 34.36094 -116.45977 9457 ft 165 kts 41°
2026-04-21 10:16 34.36836 -116.44925 9441 ft 164 kts 70°
2026-04-21 10:16 34.36865 -116.43581 9323 ft 162 kts 114°
2026-04-21 10:16 34.36186 -116.42585 9171 ft 153 kts 155°
2026-04-21 10:16 34.35313 -116.41812 9026 ft 160 kts 142°
2026-04-21 10:17 34.34586 -116.40786 8880 ft 164 kts 131°
2026-04-21 10:17 34.33946 -116.39616 8732 ft 167 kts 127°
2026-04-21 10:17 34.33358 -116.38416 8585 ft 167 kts 126°
2026-04-21 10:17 34.32784 -116.37195 8434 ft 165 kts 125°